Location: Newark
(50.0306°N, 2.3272°E)
Time: 05:40:05
(UTC+00:00)

A-11 Canister half - Pass Details

Date: 13 December 2019
Orbit: 1525 x 1684 km, 47.3° (Epoch: 17 January)

Event Time Altitude Azimuth Distance (km) Brightness Sun altitude
Rises 03:55:52 0° 201° (SSW) 4,882 - -34.8°
Exits shadow 03:59:01 - 193° (SSW) 4,036 11.0 -34.3°
Reaches altitude 10° 03:59:30 10° 191° (S) 3,914 11.0 -34.2°
Maximum altitude 04:07:45 30° 136° (SE) 2,678 10.5 -32.9°
Drops below altitude 10° 04:16:03 10° 80° (E) 3,948 12.0 -31.6°
Sets 04:19:42 0° 71° (ENE) 4,932 12.7 -31.0°
